Dewpoint
16 14 10 9 11 12 13 12 11 11 10 10 9 7 4 3 1 -0 7 14 14 14 13 11 9 6 2 0 -3 -7 -10 -8 -2 6 11 9 4 3 6 7 7 2 3
15 14 11 10 11 12 12 12 11 11 11 9 7 5 4 1 -2 -2 -2 0 3 3 1 1 0 -1 -1 -5 -10 -11 -9 -7 -5 -0 3 7 10 10 11 11 8 1 -2
15 16 12 11 11 12 12 12 12 11 11 10 8 7 6 3 -2 -1 -1 -1 -2 -2 -2 -3 -3 -4 -7 -9 -6 -4 -3 -1 2 7 12 13 11 12 12 10 10 8 10
15 16 14 11 11 12 12 12 12 12 11 10 8 8 8 8 1 0 -2 -6 -9 -10 -9 -7 -7 -8 -6 -2 0 3 5 8 11 12 13 14 13 11 8 10 10 11 12
16 16 15 13 11 12 12 12 12 13 11 11 9 10 8 10 9 8 4 -2 -11 -11 -10 -8 -6 -4 -3 3 8 8 10 11 12 11 12 12 12 7 5 9 11 12 11
15 16 15 14 12 12 13 13 13 13 13 13 11 10 7 12 11 10 7 1 -9 -9 -8 -5 -2 -1 4 8 9 10 10 11 12 12 12 11 4 -3 -3 -2 7 12 11
15 16 14 14 13 13 14 14 13 13 14 13 11 7 5 13 13 11 8 4 -5 -6 -4 -2 1 3 4 6 7 9 10 10 12 12 11 10 -0 -3 -7 -10 -8 2 5
15 16 14 13 13 13 14 13 13 14 14 14 13 3 0 7 13 11 10 7 2 -4 -2 -0 2 4 5 6 6 6 6 5 10 10 8 3 -1 -2 -5 -8 -12 -13 -12
16 16 15 13 13 13 13 12 13 14 13 13 13 4 2 -2 11 12 11 9 6 1 -2 1 3 4 5 5 5 5 5 5 10 9 10 10 2 -1 -2 -5 -7 -11 -13
15 16 16 15 14 14 13 12 13 13 14 12 10 7 1 -2 3 13 13 11 9 6 2 -1 -0 2 3 4 5 4 5 5 10 9 11 6 5 4 1 -1 -3 -7 -10
15 16 16 15 15 15 14 13 13 13 11 10 8 1 -4 -6 -6 10 13 13 12 8 6 4 1 -1 1 3 4 3 4 9 10 10 11 7 6 5 5 4 1 -2 -6
15 16 15 15 15 14 15 13 14 13 11 8 -0 -3 -4 -5 -5 4 9 10 12 9 7 6 5 4 -0 3 2 4 8 6 7 8 11 7 7 7 6 6 5 3 -1
15 15 14 14 15 14 13 14 14 14 13 10 0 -5 -7 -4 -4 -5 4 11 11 9 8 8 6 7 5 3 -1 4 4 5 8 7 8 7 8 7 7 6 6 6 4
14 14 14 14 14 14 14 14 14 14 13 10 2 -1 -6 -4 -2 2 8 10 11 10 11 10 11 9 6 4 1 -0 0 2 4 5 9 7 7 8 7 7 6 6 6
15 14 14 14 14 14 14 14 14 14 12 11 7 3 0 -4 -3 3 10 10 11 11 11 8 5 8 7 6 3 -1 -1 1 3 5 7 6 6 7 8 7 7 6 6
14 14 14 14 15 13 14 14 14 14 13 11 9 8 7 4 2 -0 1 2 2 -1 2 4 4 1 2 3 3 0 -1 2 4 6 7 8 7 7 7 8 8 7 6
13 13 14 14 15 14 14 14 14 14 13 12 11 11 10 8 7 8 5 1 2 4 5 3 3 0 0 1 2 3 2 4 6 7 8 8 8 8 8 8 8 8 8
13 12 12 13 13 14 14 14 14 13 13 12 12 12 10 9 8 8 8 4 6 7 7 5 5 5 5 6 6 7 7 7 8 8 8 8 9 9 9 9 9 9 9
10 11 12 12 12 12 14 14 13 13 13 13 13 13 11 11 9 9 9 9 8 8 8 8 7 7 7 8 8 9 9 9 9 10 10 10 10 9 9 10 9 9 9
9 10 10 11 11 12 12 13 13 13 13 13 13 13 11 11 11 10 10 10 10 10 9 9 9 9 9 9 9 9 9 9 9 10 9 8 8 8 9 9 9 9 9
10 8 9 10 12 12 12 12 12 13 13 13 13 13 12 11 11 11 11 11 10 10 10 10 10 10 10 10 10 10 10 10 10 10 9 8 8 7 7 8 8 9 9
9 8 9 9 9 10 10 10 11 11 11 12 13 12 13 12 12 11 11 11 11 11 11 11 10 10 10 11 11 11 11 10 11 10 9 8 8 8 8 9 8 8 8
8 9 8 6 5 5 6 6 8 9 9 10 11 11 11 11 11 11 11 11 11 12 11 11 11 11 11 11 11 11 11 10 10 10 9 9 8 9 9 8 9 9 9
1 0 5 5 5 5 6 5 7 8 7 7 9 11 12 12 12 12 12 12 12 11 11 11 11 11 12 11 11 11 11 11 10 10 10 9 8 8 9 8 9 8 8
2 3 1 -0 5 5 4 3 7 7 6 8 8 9 11 11 11 11 11 11 11 11 11 11 11 11 10 11 11 11 11 10 10 10 10 8 8 8 8 8 8 7 6
1 1 2 1 -1 2 4 3 6 6 7 6 6 8 10 8 9 11 11 10 9 9 9 9 10 10 11 11 10 11 11 11 9 9 9 9 9 7 7 6 6 6 6
Wind_Speed
22 26 26 24 21 19 17 14 12 10 8 6 6 6 8 9 10 13 15 15 15 13 8 7 7 6 7 8 9 11 13 14 14 15 14 12 11 13 15 15 16 12 13
27 27 27 24 22 20 17 14 11 9 8 6 7 9 11 12 14 14 12 11 7 5 5 5 7 8 10 11 13 15 16 16 16 16 15 15 16 17 17 16 14 14 13
28 27 27 24 22 20 17 14 11 9 7 7 8 10 12 14 16 16 15 13 11 10 9 9 10 12 13 15 16 17 17 18 19 19 20 13 16 17 18 17 15 15 14
28 27 27 25 22 19 17 14 11 9 7 7 9 11 13 15 17 17 16 14 13 13 13 13 14 15 15 16 16 16 16 17 19 20 16 16 12 12 14 16 16 14 13
26 26 25 26 23 20 17 13 12 9 8 9 10 12 13 13 14 15 15 15 15 16 16 16 15 15 15 16 16 16 16 18 17 15 13 12 9 8 9 12 12 13 14
25 24 25 25 23 20 16 14 12 10 9 10 9 12 13 12 11 13 14 15 16 16 17 16 15 15 16 15 15 15 15 14 15 11 11 10 11 12 10 7 6 7 9
24 22 26 25 23 21 17 16 13 10 10 7 9 11 14 16 10 11 12 14 15 16 16 16 15 15 14 13 13 13 12 11 10 9 10 10 11 12 11 9 6 2 2
24 21 24 24 23 21 18 16 14 12 8 9 12 15 15 16 14 10 10 12 13 14 14 15 14 13 13 13 12 12 11 10 9 9 10 10 11 11 11 11 10 7 4
21 20 21 24 23 21 19 17 16 12 12 12 12 10 9 14 16 11 10 10 11 12 12 12 12 11 10 10 10 10 9 9 9 9 9 8 10 11 12 12 11 10 9
20 19 20 20 22 22 20 18 16 13 14 12 3 4 5 10 15 15 11 9 8 8 8 7 7 6 6 6 6 6 7 7 6 7 7 8 10 11 11 11 12 11 10
20 19 19 19 20 18 18 19 16 14 12 9 7 6 8 9 12 13 10 9 8 6 5 5 5 5 4 3 3 4 4 4 3 3 3 6 8 10 11 12 12 12 11
20 20 20 19 19 19 18 20 17 17 13 10 8 7 9 10 12 14 12 10 8 7 5 3 3 2 2 2 2 1 1 1 1 3 1 5 6 7 9 10 11 11 10
21 25 25 24 19 19 19 18 16 14 12 11 10 10 10 10 12 13 14 12 10 9 5 5 4 3 3 2 3 3 3 2 2 4 4 5 6 7 8 9 11 11 11
23 24 25 26 21 19 17 17 15 14 12 11 12 11 11 11 11 11 11 10 8 9 9 7 5 6 5 4 4 5 5 5 4 5 5 6 7 7 8 9 10 10 10
21 25 25 26 25 20 18 16 15 14 14 11 11 12 11 11 11 11 11 10 9 9 8 8 8 7 7 7 6 6 6 6 5 6 6 7 8 7 8 9 10 10 10
21 24 24 26 25 24 20 18 15 15 14 13 12 11 12 11 11 11 12 11 11 10 10 9 9 8 8 8 8 7 7 7 7 7 7 8 8 8 8 9 10 11 11
17 16 23 24 26 25 22 19 17 15 15 15 12 11 11 13 13 11 12 12 11 10 10 10 9 9 8 7 7 6 7 7 8 8 9 9 10 9 8 9 9 11 12
16 18 20 20 20 25 24 21 18 17 17 15 15 12 12 13 13 13 11 12 12 11 10 9 9 8 7 6 6 6 7 9 9 10 11 10 10 11 11 10 10 11 12
16 15 20 18 17 17 24 24 21 18 17 16 16 15 13 12 13 13 11 11 13 13 12 10 10 9 8 8 8 8 10 11 11 12 11 12 12 13 13 14 12 13 14
17 16 18 19 18 16 19 23 23 22 21 18 18 16 14 14 13 13 12 12 13 13 13 13 11 11 11 11 12 13 14 14 15 14 12 12 12 12 13 11 13 14 14
19 20 19 19 18 16 16 21 22 24 24 23 21 18 16 16 15 15 14 14 15 16 15 15 15 15 15 14 14 15 15 15 16 16 14 12 11 15 13 15 15 15 15
20 19 19 18 18 17 18 17 17 20 21 24 24 21 20 17 17 17 18 17 18 18 18 18 18 18 18 18 14 11 10 10 12 12 13 13 14 16 15 18 16 14 14
13 16 17 19 17 13 10 12 16 21 22 24 27 25 23 21 21 21 22 21 21 21 21 21 22 21 20 21 19 15 9 9 12 13 16 18 18 16 16 19 15 17 17
14 12 16 19 18 16 23 13 22 23 24 23 23 21 19 20 21 21 21 21 22 23 23 23 23 21 21 22 23 23 22 22 19 14 14 16 19 18 20 16 15 16 15
15 20 14 14 22 24 22 16 27 27 29 28 26 27 22 20 19 19 20 21 22 22 22 23 23 22 23 23 24 23 22 23 23 22 20 17 16 15 14 16 17 18 15
16 19 23 21 19 21 25 26 26 25 25 25 25 23 21 20 21 21 21 22 21 22 23 23 24 25 24 24 24 23 22 20 18 16 19 18 15 17 17 18 18 19 17
Wind_Direction
168 167 168 166 164 163 162 160 156 149 137 119 109 97 91 90 112 134 146 131 127 129 131 115 104 89 76 72 75 80 89 97 98 98 98 81 71 60 58 56 64 68 78
160 166 169 169 166 164 164 163 159 150 137 121 112 105 98 88 105 118 131 152 163 153 136 114 99 91 88 86 88 92 94 95 97 98 95 78 69 68 60 58 65 68 73
159 166 169 172 169 168 167 166 160 153 140 121 110 107 105 94 100 108 111 116 120 120 112 106 102 98 93 95 95 95 97 97 97 95 82 76 72 64 53 58 69 67 67
160 166 167 174 173 170 170 166 164 159 147 130 122 122 114 103 100 100 98 99 104 107 107 106 103 101 99 96 96 97 99 101 100 92 77 71 74 63 56 61 65 63 56
162 161 171 172 174 173 170 169 170 164 152 141 132 126 121 113 109 101 95 92 99 103 106 105 103 103 101 101 99 100 98 102 99 91 77 73 55 42 60 67 56 61 59
164 163 175 174 175 172 174 172 165 163 153 152 141 141 132 124 117 107 99 94 102 107 108 106 104 104 105 105 101 103 103 96 82 80 66 52 59 61 65 70 89 93 73
166 169 171 172 173 172 171 163 169 163 167 176 163 153 148 139 139 124 109 103 107 112 112 111 108 108 108 108 105 106 106 97 87 75 69 63 54 55 57 59 63 42 337
166 168 172 174 175 174 171 168 163 170 175 152 146 152 150 154 144 143 127 115 112 117 120 119 115 111 110 107 106 106 102 94 78 78 73 62 57 53 50 50 52 52 48
164 165 171 176 176 179 178 173 174 182 161 160 154 130 153 159 155 156 152 135 126 125 132 131 128 123 118 117 111 104 101 92 86 81 69 56 53 50 46 43 40 38 36
172 171 171 174 180 182 180 179 180 181 171 173 176 143 139 170 170 159 166 156 142 125 117 118 123 118 107 97 98 87 85 84 81 66 63 47 49 45 41 38 33 32 30
175 175 178 178 180 178 178 180 186 186 182 190 196 180 159 165 179 176 167 164 157 151 143 130 127 138 143 138 118 96 85 88 78 60 56 33 39 38 33 30 27 23 22
178 179 182 182 183 181 183 184 185 191 191 187 183 173 168 170 176 177 182 174 174 182 180 177 164 150 161 197 208 163 112 84 44 20 340 360 13 25 22 24 23 22 20
188 190 192 188 186 185 189 182 182 185 186 189 187 184 185 185 186 186 187 189 194 192 208 213 219 222 229 239 249 242 244 267 291 323 325 339 340 353 2 8 8 10 13
198 200 199 198 193 191 191 192 192 191 194 195 194 191 192 192 187 187 185 194 192 198 209 215 221 242 253 264 270 263 265 273 283 292 296 322 331 329 334 349 353 355 1
208 202 203 205 203 198 199 198 201 200 201 204 202 197 196 198 196 193 191 195 197 208 212 224 231 240 255 265 273 276 275 275 282 290 287 308 317 315 315 327 333 341 344
210 209 204 209 207 205 205 203 205 208 206 211 207 204 205 203 203 206 208 212 214 218 222 227 233 237 246 258 271 277 272 271 277 290 290 295 308 304 303 308 314 325 333
209 215 212 212 210 210 208 209 207 211 215 218 218 219 218 215 212 214 218 217 219 223 228 232 239 238 243 247 256 267 268 269 278 287 290 293 300 301 294 296 302 304 313
211 216 218 216 222 218 212 211 210 213 219 221 222 226 223 218 216 216 219 219 221 226 232 233 234 235 236 242 248 262 272 276 279 285 291 296 295 294 298 292 289 287 293
213 223 214 221 224 225 223 215 215 213 219 220 221 226 225 219 217 216 216 218 224 230 233 235 236 237 242 251 255 260 268 274 282 286 293 296 297 295 292 291 286 281 282
208 207 215 222 217 222 219 219 220 221 224 223 222 224 224 222 220 220 221 224 230 235 239 243 246 251 250 253 266 267 270 276 279 284 294 302 311 309 293 290 289 285 277
205 211 211 218 217 218 215 217 221 228 228 230 230 227 228 228 229 230 230 230 237 241 244 246 249 253 260 261 268 278 280 276 277 285 295 287 291 307 290 299 295 287 284
206 207 212 209 213 220 220 229 234 239 239 240 238 233 235 235 239 242 241 238 239 245 248 251 252 257 258 264 264 264 280 276 283 284 285 274 285 294 282 292 289 281 286
197 195 192 197 203 206 230 243 241 242 248 252 250 246 245 245 247 248 252 251 249 250 253 253 254 255 259 265 263 254 262 261 270 281 279 277 290 280 288 294 285 277 284
196 220 215 204 214 226 228 251 250 251 252 259 266 257 249 246 248 250 250 252 253 252 255 260 260 263 257 260 267 265 263 264 271 277 277 276 287 274 283 282 277 283 284
214 210 241 238 217 218 212 226 246 236 240 248 244 248 248 250 249 252 252 254 254 255 257 259 262 261 261 263 263 268 270 269 268 267 275 278 274 275 281 282 283 283 287
226 223 239 244 250 232 223 225 231 237 242 245 245 248 256 258 257 255 255 256 256 255 257 258 258 259 260 262 263 263 264 259 265 265 263 270 268 277 281 280 285 288 291
Height
1537 1540 1544 1548 1551 1554 1556 1558 1559 1560 1561 1562 1562 1562 1561 1561 1560 1561 1562 1563 1563 1564 1565 1565 1566 1565 1564 1565 1565 1564 1565 1565 1566 1566 1567 1568 1567 1567 1566 1565 1565 1565 1564
1536 1540 1544 1548 1551 1554 1557 1559 1560 1561 1562 1563 1563 1563 1563 1562 1562 1562 1563 1564 1565 1566 1566 1566 1567 1566 1566 1566 1566 1566 1567 1567 1568 1569 1570 1570 1570 1569 1568 1567 1567 1567 1566
1536 1540 1544 1549 1552 1555 1557 1560 1561 1562 1563 1564 1564 1564 1565 1564 1564 1565 1565 1566 1566 1567 1567 1568 1568 1567 1568 1568 1569 1569 1569 1569 1570 1572 1572 1574 1572 1572 1571 1570 1569 1569 1568
1538 1541 1544 1549 1553 1556 1558 1560 1562 1564 1564 1565 1565 1566 1566 1567 1567 1567 1568 1568 1568 1568 1569 1569 1570 1570 1570 1571 1571 1571 1572 1572 1572 1573 1575 1576 1576 1574 1573 1573 1572 1572 1571
1540 1542 1546 1549 1553 1556 1559 1561 1563 1565 1566 1566 1567 1568 1568 1569 1569 1570 1570 1570 1570 1570 1571 1572 1572 1573 1573 1574 1574 1574 1574 1574 1575 1576 1577 1578 1578 1575 1575 1575 1574 1574 1573
1542 1544 1546 1550 1554 1557 1560 1562 1565 1566 1567 1568 1568 1569 1570 1571 1572 1572 1572 1572 1572 1573 1573 1574 1575 1575 1576 1576 1577 1577 1577 1577 1578 1580 1580 1578 1577 1577 1576 1576 1575 1575 1575
1544 1546 1547 1551 1555 1557 1561 1563 1566 1567 1568 1569 1569 1570 1572 1573 1574 1574 1574 1575 1575 1575 1576 1576 1577 1578 1578 1579 1579 1580 1580 1579 1582 1581 1581 1580 1578 1578 1577 1577 1576 1576 1576
1545 1547 1548 1552 1555 1558 1560 1563 1566 1568 1569 1569 1570 1571 1572 1573 1575 1575 1576 1577 1577 1577 1578 1578 1579 1579 1580 1581 1581 1582 1582 1581 1582 1582 1582 1581 1580 1580 1579 1578 1577 1577 1577
1544 1548 1550 1552 1556 1559 1561 1563 1565 1568 1569 1570 1571 1572 1574 1574 1575 1577 1578 1578 1579 1579 1580 1580 1580 1581 1582 1582 1583 1583 1583 1583 1584 1584 1584 1583 1581 1581 1580 1579 1578 1577 1577
1546 1549 1552 1555 1557 1559 1561 1563 1565 1567 1569 1571 1572 1573 1573 1575 1576 1577 1578 1579 1580 1581 1582 1582 1583 1584 1584 1585 1585 1585 1585 1585 1585 1585 1585 1584 1583 1582 1581 1580 1579 1578 1577
1546 1548 1553 1555 1558 1561 1562 1563 1566 1568 1569 1571 1572 1573 1573 1575 1577 1579 1579 1580 1580 1581 1582 1582 1583 1584 1585 1585 1586 1586 1586 1587 1587 1587 1587 1585 1584 1583 1582 1581 1581 1580 1578
1545 1547 1552 1555 1558 1560 1562 1563 1566 1567 1568 1570 1571 1572 1574 1575 1576 1578 1579 1580 1581 1581 1583 1583 1584 1584 1585 1586 1586 1586 1587 1587 1587 1587 1587 1585 1585 1584 1583 1582 1581 1580 1579
1543 1545 1548 1552 1557 1560 1561 1564 1566 1568 1568 1569 1570 1572 1573 1574 1576 1577 1578 1579 1580 1582 1582 1583 1584 1584 1585 1585 1585 1586 1586 1586 1587 1587 1586 1585 1584 1584 1583 1582 1582 1581 1579
1540 1544 1547 1550 1555 1559 1561 1564 1565 1567 1568 1569 1569 1571 1573 1574 1575 1576 1578 1579 1581 1582 1583 1583 1584 1584 1584 1584 1584 1585 1585 1585 1586 1586 1586 1585 1584 1583 1583 1582 1582 1581 1579
1539 1542 1545 1549 1552 1556 1559 1562 1565 1566 1567 1569 1569 1570 1571 1573 1574 1576 1578 1579 1580 1581 1582 1582 1582 1583 1583 1583 1583 1583 1583 1584 1584 1585 1584 1583 1583 1582 1582 1581 1581 1580 1579
1537 1539 1543 1546 1550 1553 1557 1560 1563 1566 1567 1567 1568 1569 1570 1571 1573 1574 1575 1577 1578 1578 1579 1580 1581 1581 1581 1582 1582 1581 1582 1582 1583 1583 1582 1582 1581 1581 1580 1579 1579 1578 1577
1534 1537 1540 1543 1546 1550 1555 1558 1561 1563 1565 1566 1567 1567 1568 1570 1571 1572 1573 1575 1576 1576 1577 1578 1579 1579 1580 1580 1580 1580 1580 1580 1581 1581 1580 1580 1579 1579 1578 1577 1577 1577 1575
1531 1534 1538 1541 1543 1546 1550 1553 1557 1560 1562 1564 1565 1565 1566 1567 1569 1570 1571 1573 1574 1574 1575 1576 1577 1578 1578 1579 1579 1579 1579 1579 1579 1579 1579 1578 1577 1577 1576 1575 1575 1574 1574
1529 1531 1535 1538 1541 1543 1546 1549 1552 1556 1559 1561 1562 1563 1564 1565 1566 1568 1569 1570 1571 1572 1573 1574 1575 1576 1576 1577 1577 1578 1577 1578 1577 1577 1576 1576 1574 1574 1573 1572 1572 1571 1571
1526 1529 1533 1537 1539 1541 1542 1546 1549 1552 1555 1558 1559 1560 1562 1563 1564 1565 1566 1568 1569 1570 1571 1572 1573 1573 1574 1574 1575 1575 1575 1575 1574 1574 1574 1573 1572 1571 1569 1569 1568 1568 1567
1523 1526 1530 1533 1536 1538 1540 1544 1546 1548 1551 1555 1557 1559 1560 1561 1562 1563 1564 1565 1566 1567 1568 1569 1570 1570 1571 1572 1572 1572 1571 1571 1571 1571 1570 1570 1569 1568 1567 1566 1565 1565 1564
1521 1523 1527 1531 1534 1536 1538 1540 1543 1547 1550 1553 1554 1555 1557 1558 1560 1560 1561 1562 1562 1563 1565 1565 1566 1567 1567 1568 1569 1569 1569 1570 1568 1567 1567 1567 1566 1564 1563 1563 1562 1561 1561
1517 1520 1523 1526 1530 1531 1532 1538 1542 1546 1547 1551 1552 1552 1552 1555 1555 1556 1557 1558 1559 1560 1560 1561 1562 1562 1563 1563 1564 1565 1564 1564 1564 1564 1563 1563 1562 1561 1559 1559 1558 1557 1556
1515 1519 1521 1524 1525 1527 1528 1535 1540 1542 1544 1548 1549 1548 1549 1549 1550 1551 1552 1553 1554 1554 1555 1556 1557 1557 1558 1558 1558 1559 1559 1560 1560 1559 1558 1558 1558 1557 1556 1555 1554 1553 1552
1511 1514 1516 1520 1522 1525 1526 1532 1536 1539 1541 1543 1545 1546 1547 1545 1544 1546 1546 1547 1548 1548 1550 1551 1552 1552 1552 1553 1553 1553 1554 1554 1555 1554 1552 1553 1553 1552 1552 1552 1551 1550 1548
1506 1511 1512 1516 1517 1520 1524 1528 1532 1534 1537 1537 1540 1539 1539 1539 1539 1540 1541 1541 1542 1542 1544 1545 1546 1546 1547 1547 1548 1548 1548 1549 1549 1549 1548 1548 1549 1548 1547 1548 1547 1546 1545